Location: Chassagnes
(44.4047°N, 4.1657°E)
Time: 12:13:30
(UTC+00:00)

CZ-4C R/B - Pass Details

Date: 27 October 2020
Orbit: 624 x 1378 km, 63.4° (Epoch: 23 November)

Event Time Altitude Azimuth Distance (km) Brightness Sun altitude
Rises 19:21:30 0° 324° (NW) 3,720 6.2 -29.5°
Reaches altitude 10° 19:24:12 10° 333° (NNW) 2,881 5.4 -29.9°
Enters shadow 19:29:35 35° 22° (NNE) 1,801 3.7 -30.9°
